Regional Weather Roundup
Issued by NWS

Home | Current Version | Previous Version | Graphics & Text | Print | Product List | Glossary Off
Versions: 1 2 3 4 5 6 7 8 9 10 11 12 13 14 15 16 17 18 19 20 21 22 23 24 25 26 27 28 29 30 31 32 33 34 35 36 37 38 39 40 41 42 43 44 45 46 47 48 49 50

000
ASUS43 KTOP 271359
RWRKS

WEATHER ROUNDUP FOR KANSAS
NATIONAL WEATHER SERVICE GOODLAND KS
900 AM CDT SAT MAY 27 2017

NOTE:  "FAIR" INDICATES FEW OR NO CLOUDS BELOW 12,000 FEET WITH NO
SIGNIFICANT WEATHER AND/OR OBSTRUCTIONS TO VISIBILITY.

KSZ001>006-013>018-027>032-041>047-271500-
NORTHWEST KANSAS

CITY           SKY/WX    TMP DP  RH WIND       PRES   REMARKS
GOODLAND       CLOUDY    54  53  97 NW16      29.96R
HAYS           PTSUNNY   60  58  92 SE12      29.84F
HILL CITY      MOSUNNY   62  58  86 NW5       29.89S
RUSSELL        CLOUDY    59  57  93 E14       29.82F
$$

KSZ061>065-074>080-084>089-271500-
SOUTHWEST KANSAS

CITY           SKY/WX    TMP DP  RH WIND       PRES   REMARKS
DODGE CITY     CLOUDY    63  53  70 NE14      29.85S
ELKHART          N/A     55  44  66 N14         N/A
GARDEN CITY    CLOUDY    62  52  69 NE20      29.89R
GREAT BEND     MOSUNNY   67  55  65 E16G23    29.84F
LIBERAL        CLOUDY    64  58  80 NE15G23   29.87R
$$

KSZ066>073-081>083-090>101-271500-
SOUTHEAST KANSAS

CITY           SKY/WX    TMP DP  RH WIND       PRES   REMARKS
CHANUTE        CLOUDY    74  68  81 NE5       29.82F
COFFEYVILLE    MOSUNNY   77  74  90 N3        29.81R
HUTCHINSON     CLOUDY    64  57  78 N18G25    29.88R
MEDICINE LODGE   N/A     72  64  76 NE16      29.78R
NEWTON         PTSUNNY   67  58  72 N18       29.88R
PARSONS        CLOUDY    75  71  87 CALM      29.84R
WICHITA INTL   MOSUNNY   71  60  68 NE18      29.81F
WICHITA JABRA  MOSUNNY   70  58  65 NE15      29.82F
WINFIELD       PTSUNNY   74  68  81 NE13      29.78F
$$

KSZ007>012-019>026-033>040-048>060-102>105-271500-
NORTHEAST KANSAS

CITY           SKY/WX    TMP DP  RH WIND       PRES   REMARKS
CONCORDIA      RAIN      58  58 100 E7        29.89F FOG
EMPORIA        SUNNY     68  60  75 NE12      29.84F
LAWRENCE       CLOUDY    63  61  93 NE12      29.87F
MANHATTAN      CLOUDY    62  60  93 SW7       29.90R
OLATHE IND     PTSUNNY   67  60  78 N18G25    29.89F
OLATHE EXE     CLOUDY    68  65  90 N14       29.89F
SALINA         LGT RAIN  62  59  90 W9        29.93R
TOPEKA BILLARD CLOUDY    63  62  97 E8        29.87R
TOPEKA FORBES  CLOUDY    64  61  90 E5        29.87F
$$




USA.gov is the U.S. government's official web portal to all federal, state and local government web resources and services.